Tracking 19572 objects as of 23-Feb-2019
HD Live streaming from Space Station
objects crossing your sky now

COSMOS 883

Track COSMOS 883 now!
10-day predictions
COSMOS 883 is classified as:


NORAD ID: 9610
Int'l Code: 1976-122A
Perigee: 958.6 km
Apogee: 1,011.3 km
Inclination: 82.9 °
Period: 104.6 minutes
Semi major axis: 7355 km
RCS: 1.9565 m2 (large)
Launch date: December 15, 1976
Source: Commonwealth of Independent States (former USSR) (CIS)
Launch site: PLESETSK MISSILE AND SPACE COMPLEX (PKMTR)
aabbcc
Your satellite tracking list
Your tracking list is empty




NASA's NSSDC Master Catalog

Two Line Element Set (TLE):
1  9610U 76122A   19054.51137162  .00000014  00000-0 -20129-5 0  9994
2  9610  82.9498  84.1828 0035804 120.2985 240.1722 13.76074421117895
Source of the keplerian elements: AFSPC